Location: Unspecified
(41.9031°N, 12.4386°E)
Time: 05:52:21
(UTC+01:00)

ISS - Pass Details

Date: 05 December 2019
Orbit: 411 x 421 km, 51.6° (Epoch: 15 December)

Event Time Altitude Azimuth Distance (km) Brightness Sun altitude
Rises 17:36:49 0° 306° (NW) 2,359 0.5 -10.5°
Reaches altitude 10° 17:39:21 10° 325° (NW) 1,497 -0.8 -11.0°
Maximum altitude 17:41:50 19° 13° (NNE) 1,070 -2.0 -11.4°
Enters shadow 17:43:04 16° 42° (NE) 1,192 -2.0 -11.6°
